Location: Newark
(54.3386°S, 169.8415°W)
Time: 22:18:45
(UTC+00:00)

Vanguard 3 - All Passes

Search period start: 16 October 2019 00:00
Search period end: 26 October 2019 00:00
Orbit: 508 x 3262 km, 33.3° (Epoch: 15 October)

Date Brightness Start Highest point End Pass type
(mag) Time Alt. Az. Time Alt. Az. Time Alt. Az.
16 Oct - 02:10:07 10° WNW 02:25:33 33° N 02:36:52 10° NE daylight
16 Oct - 04:26:32 10° WNW 04:37:16 21° NNW 04:45:14 10° N daylight
16 Oct - 20:38:34 10° NNE 20:44:58 12° NE 20:51:24 10° ENE daylight
16 Oct - 22:42:25 10° NNW 22:57:06 27° NNE 23:10:29 10° ENE daylight
17 Oct - 00:54:00 10° NW 01:10:23 35° N 01:23:17 10° ENE daylight
17 Oct - 03:08:59 10° WNW 03:23:02 29° NNW 03:33:19 10° NNE daylight
17 Oct - 05:28:12 10° WNW 05:33:44 13° NW 05:38:27 10° NNW daylight
17 Oct - 21:29:33 10° N 21:41:59 22° NE 21:54:15 10° ENE daylight
17 Oct - 23:38:43 10° NW 23:54:55 33° NNE 00:08:57 10° ENE daylight
18 Oct - 01:52:12 10° WNW 02:08:12 34° NNW 02:20:23 10° NE daylight
18 Oct - 04:08:46 10° WNW 04:20:03 21° NW 04:28:39 10° N daylight
18 Oct - 20:19:04 10° NNE 20:27:17 14° NE 20:35:46 10° ENE daylight
18 Oct - 22:24:27 10° NNW 22:39:27 30° NNE 22:53:47 10° ENE daylight
19 Oct - 00:36:09 10° WNW 00:52:52 36° N 01:06:41 10° ENE daylight
19 Oct - 02:51:08 10° WNW 03:05:42 29° NNW 03:16:45 10° NNE daylight
19 Oct - 05:10:54 10° WNW 05:16:30 13° NW 05:21:21 10° NNW daylight
19 Oct - 21:11:27 10° N 21:24:16 24° NE 21:37:31 10° ENE daylight
19 Oct - 23:20:58 10° NW 23:37:17 35° N 23:52:11 10° ENE daylight
20 Oct - 01:34:25 10° WNW 01:50:43 34° NNW 02:03:45 10° NE daylight
20 Oct - 03:51:04 10° WNW 04:02:42 21° NW 04:11:52 10° N daylight
20 Oct - 20:00:26 10° NNE 20:09:35 16° NE 20:19:23 10° ENE daylight
20 Oct - 22:06:45 10° NNW 22:21:45 31° NNE 22:36:52 10° ENE daylight
21 Oct - 00:18:29 10° WNW 00:35:17 37° N 00:49:54 10° NE daylight
21 Oct - 02:33:25 10° WNW 02:48:14 29° NNW 02:59:59 10° NNE daylight
21 Oct - 04:53:50 10° WNW 04:59:08 12° NW 05:03:51 10° NNW daylight
21 Oct - 20:53:41 10° NNW 21:06:33 25° NNE 21:20:31 10° ENE daylight
21 Oct - 23:03:25 10° NW 23:19:37 36° N 23:35:15 10° ENE daylight
22 Oct - 01:16:47 10° WNW 01:33:09 34° NNW 01:46:55 10° NE daylight
22 Oct - 03:33:30 10° WNW 03:45:14 21° NW 03:54:51 10° N daylight
22 Oct - 19:42:21 10° N 19:51:54 18° NE 20:02:34 10° ENE daylight
22 Oct - 21:49:16 10° NW 22:04:03 33° NNE 22:19:46 10° ENE daylight
23 Oct - 00:01:00 10° WNW 00:17:37 37° N 00:32:57 10° NE daylight
23 Oct - 02:15:49 10° WNW 02:30:41 28° NNW 02:43:01 10° NNE daylight
23 Oct - 04:37:13 10° WNW 04:41:39 11° NW 04:45:46 10° NW daylight
23 Oct - 20:36:13 10° NNW 20:48:52 27° NNE 21:03:18 10° ENE daylight
23 Oct - 22:46:04 10° NW 23:01:55 37° N 23:18:08 10° ENE daylight
24 Oct - 00:59:18 10° WNW 01:15:31 34° NNW 01:29:54 10° NE daylight
24 Oct - 03:16:07 10° WNW 03:27:41 20° NW 03:37:33 10° N daylight
24 Oct - 19:24:40 10° N 19:34:16 19° NE 19:45:27 10° ENE daylight
24 Oct - 21:32:03 10° NW 21:46:21 33° NNE 22:02:28 10° ENE daylight
24 Oct - 23:43:42 10° WNW 23:59:56 37° N 00:15:49 10° NE daylight
25 Oct - 01:58:24 10° WNW 02:13:02 27° NNW 02:25:50 10° NNE daylight
25 Oct - 04:21:41 10° WNW 04:24:06 10° NW 04:26:26 10° NW daylight
25 Oct - 18:17:25 10° NE 18:20:20 11° NE 18:23:23 10° ENE daylight
25 Oct - 20:19:00 10° NNW 20:31:13 28° NNE 20:45:54 10° ENE daylight
25 Oct - 22:28:56 10° NW 22:44:14 37° N 23:00:50 10° ENE daylight
